User: anonymous   Login
Location: Fort Wayne
(41.1310°N, 85.1290°W)
Time: 11:19:56
(UTC-05:00)
Language:

Tiros 1 despin weight - Orbit

View from above orbital plane
View from above orbital plane
View from above satellite
View from above satellite

Ground track
Ground track

The orbit data is extracted from the following two-line orbital elements,

1   115U 60002D   18055.08117102 +.00000004 +00000-0 +27744-4 0  9996
2   115 048.1677 013.4558 0033862 128.8490 231.5452 14.83240660087610
Epoch (UTC): 24 February 2018 01:56:53
Eccentricity: 0.0033862
inclination: 48.1677°
perigee height: 595 km
apogee height: 643 km
right ascension of ascending node: 13.4558°
argument of perigee: 128.8490°
revolutions per day: 14.83240660
mean anomaly at epoch: 231.5452°
orbit number at epoch: 8761

The dashed part of the orbit path shows where the satellite is in the earth's shadow,  

DLR